[[{"header":{"parameterUnit":"m.s-1","parameterCategory":1,"la1":30.2991,"la2":30.254,"lo1":-89.0895,"lo2":-89.0444,"dy":0.0017,"dx":0.0017,"nx":28,"ny":28,"refTime":"2024-07-23T09:00:00:Z","depth":0,"parameterNumber":2,"parameterNumberName":"U-component_of_WINDS"},"data":[0,0,0,0,0,0,0,0,0,0,0,0,0,0,0,0,0,0,0,0,0,0,0,0,0,0,0,0,0,0,0,0,0,0,0,0,0,0,0,0,0,0,0,0,0,0,0,0,0,0,0,0,0,0,0,0,0,0,-0.0587,-0.0588,0,-0.0663,-0.0664,-0.0665,-0.0682,-0.0681,-0.0681,-0.068,-0.0761,-0.0764,-0.0767,0,0,0,0,0,0,0,0,0,0,0,0,0,-0.0458,-0.046,-0.0587,-0.0588,-0.0589,-0.0663,-0.0664,-0.0665,-0.0682,-0.0681,-0.068,-0.068,-0.0761,-0.0764,-0.0767,0,0,0,0,0,0,0,0,0,0,0,0,0,-0.0522,-0.0461,-0.0587,-0.0606,-0.0608,-0.0663,-0.0664,-0.0665,-0.0682,-0.0681,-0.068,-0.0679,-0.0759,-0.0763,-0.0767,-0.0809,0,0,-0.078,-0.0781,0,0,0,0,0,0,0,0,-0.0518,-0.0527,-0.0602,-0.0605,-0.0608,-0.0662,-0.0648,-0.0713,-0.0682,-0.0654,-0.068,-0.0679,-0.0729,-0.0736,-0.0752,-0.0812,-0.0816,-0.078,-0.0782,-0.0784,-0.0785,0,0,0,0,0,0,0,-0.0514,-0.0523,-0.0617,-0.0603,-0.0607,-0.0611,-0.062,-0.0661,-0.0695,-0.0656,-0.0658,-0.0666,-0.0731,-0.0748,-0.0754,-0.0817,-0.078,-0.0783,-0.0786,-0.0787,-0.0913,-0.0914,0,0,0,0,0,0,-0.0506,-0.052,-0.0615,-0.0619,-0.056,-0.0614,-0.0623,-0.0645,-0.0695,-0.0702,-0.0667,-0.0667,-0.0741,-0.0749,-0.0757,-0.0807,-0.0784,-0.0788,-0.079,-0.0912,-0.0913,-0.0914,0,0,0,0,0,0,-0.0503,-0.0514,-0.0612,-0.057,-0.0583,-0.0617,-0.0642,-0.0647,-0.0665,-0.0703,-0.071,-0.0678,-0.0741,-0.0751,-0.0795,-0.081,-0.079,-0.0793,-0.0911,-0.0913,-0.0914,-0.0908,0,0,0,0,0,0,-0.0499,-0.0513,-0.0529,-0.057,-0.0585,-0.0648,-0.0643,-0.0649,-0.0671,-0.0672,-0.0715,-0.0722,-0.0741,-0.0789,-0.0799,-0.0815,-0.0796,-0.091,-0.0912,-0.0913,-0.0907,-0.0909,-0.0911,0,0,0,0,0,-0.0494,-0.0525,-0.0529,-0.0541,-0.0605,-0.0649,-0.0657,-0.0678,-0.0672,-0.0688,-0.0713,-0.072,-0.0807,-0.0793,-0.0805,-0.0822,-0.0909,-0.0911,-0.0913,-0.0907,-0.0909,-0.0911,0,0,0,0,0,0,-0.0487,-0.0531,-0.0536,-0.0581,-0.0611,-0.0651,-0.0673,-0.068,-0.0713,-0.0713,-0.0738,-0.0748,-0.0789,-0.081,-0.0795,-0.0864,-0.0858,-0.0862,-0.0849,-0.0851,-0.0853,-0.0847,-0.08,0,0,0,0,0,-0.049,-0.0521,-0.0558,-0.0595,-0.0609,-0.0638,-0.0658,-0.0671,-0.0703,-0.0716,-0.0744,-0.0776,-0.0809,-0.0832,-0.0865,-0.091,-0.0919,-0.0928,-0.093,-0.0931,-0.0935,-0.0958,-0.0962,-0.0921,-0.0921,-0.0921,0,0,-0.0498,-0.0526,-0.0544,-0.0594,-0.0618,-0.065,-0.0649,-0.0683,-0.0707,-0.0722,-0.0764,-0.0785,-0.0822,-0.0866,-0.0887,-0.0885,-0.0948,-0.0934,-0.0935,-0.0938,-0.0961,-0.0965,-0.0968,-0.0923,-0.0922,-0.0922,0,0,-0.0528,-0.0552,-0.0584,-0.0608,-0.0644,-0.0663,-0.067,-0.0709,-0.0723,-0.0766,-0.0777,-0.0806,-0.0865,-0.089,-0.091,-0.0947,-0.0955,-0.0957,-0.0967,-0.099,-0.0993,-0.0996,-0.1008,-0.1012,-0.0961,-0.0961,-0.0961,0,-0.0533,-0.0581,-0.06,-0.0633,-0.0654,-0.0667,-0.0699,-0.0722,-0.0768,-0.0782,-0.0779,-0.0851,-0.0877,-0.0926,-0.0934,-0.0951,-0.096,-0.0953,-0.0991,-0.0994,-0.0997,-0.1009,-0.1013,-0.0961,-0.0961,-0.0961,-0.0961,0,-0.0585,-0.0617,-0.0639,-0.068,-0.0704,-0.0736,-0.0761,-0.0782,-0.0793,-0.0812,-0.0854,-0.0885,-0.0924,-0.0937,-0.0948,-0.0987,-0.0984,-0.0985,-0.098,-0.1,-0.1012,-0.1016,-0.0961,-0.0961,-0.0961,-0.0961,0,0,-0.0614,-0.0664,-0.0671,-0.0689,-0.0729,-0.0755,-0.0787,-0.0824,-0.0841,-0.0872,-0.0899,-0.0947,-0.0948,-0.0971,-0.0985,-0.1005,-0.103,-0.1004,-0.1005,-0.1007,-0.1073,-0.1071,-0.1076,-0.1035,-0.1036,-0.1037,-0.1069,0,-0.0648,-0.0705,-0.0723,-0.0771,-0.0801,-0.0812,-0.084,-0.0868,-0.0886,-0.0914,-0.0934,-0.0967,-0.0966,-0.098,-0.1,-0.1022,-0.1043,-0.102,-0.1061,-0.1062,-0.1051,-0.1082,-0.1081,-0.111,-0.1074,-0.1075,-0.1075,0,-0.0697,-0.0725,-0.0776,-0.0809,-0.0822,-0.0847,-0.0881,-0.0908,-0.0938,-0.095,-0.0974,-0.0986,-0.102,-0.1012,-0.1059,-0.1042,-0.106,-0.1073,-0.1075,-0.108,-0.107,-0.1087,-0.1121,-0.1125,-0.1083,-0.1082,-0.1081,0,-0.0711,-0.0763,-0.0799,-0.0815,-0.0855,-0.0872,-0.089,-0.092,-0.094,-0.0969,-0.0982,-0.1016,-0.1035,-0.1061,-0.1081,-0.1073,-0.1125,-0.1119,-0.1136,-0.1135,-0.1147,-0.1146,-0.1183,-0.1158,-0.1158,-0.1158,-0.1158,0,-0.0748,-0.0778,-0.0806,-0.0829,-0.0862,-0.0882,-0.0915,-0.0933,-0.0959,-0.0985,-0.0998,-0.1022,-0.1048,-0.1076,-0.1092,-0.1127,-0.1136,-0.1146,-0.115,-0.1145,-0.1143,-0.1157,-0.1155,-0.116,-0.1159,-0.1159,-0.1159,0,-0.077,-0.0791,-0.0831,-0.0865,-0.0874,-0.0897,-0.0926,-0.0948,-0.0966,-0.0998,-0.1007,-0.1035,-0.1068,-0.109,-0.1134,-0.1144,-0.1182,-0.1186,-0.1171,-0.1173,-0.1188,-0.1186,-0.1235,-0.1242,-0.1213,-0.1213,-0.1213,0,-0.0792,-0.0815,-0.0851,-0.0868,-0.0885,-0.0914,-0.0934,-0.0953,-0.0973,-0.1008,-0.1026,-0.1059,-0.1087,-0.1139,-0.1163,-0.1196,-0.12,-0.1215,-0.1205,-0.1198,-0.1199,-0.1197,-0.1199,-0.1216,-0.1217,-0.1217,-0.1217,0,-0.0828,-0.0836,-0.0864,-0.0894,-0.0917,-0.0942,-0.0967,-0.0981,-0.1005,-0.1027,-0.106,-0.1081,-0.1123,-0.1156,-0.119,-0.1208,-0.1217,-0.1219,-0.1225,-0.122,-0.121,-0.1214,-0.1175,-0.1219,-0.1218,-0.1218,-0.1218,-0.1218,-0.0851,-0.0871,-0.0898,-0.0928,-0.0948,-0.0971,-0.0993,-0.1012,-0.1039,-0.1074,-0.1084,-0.1117,-0.1146,-0.1192,-0.1211,-0.1237,-0.1236,-0.1245,-0.1247,-0.1248,-0.1247,-0.1205,-0.1244,-0.1244,-0.1244,-0.1244,-0.1244,0,-0.0887,-0.0904,-0.0931,-0.0965,-0.0988,-0.0991,-0.1019,-0.1038,-0.1067,-0.1092,-0.1118,-0.1155,-0.1186,-0.1212,-0.1244,-0.126,-0.1264,-0.1268,-0.1267,-0.127,-0.1247,-0.1239,-0.1263,-0.1263,-0.1263,-0.1263,-0.1263,-0.1263,-0.0908,-0.0942,-0.0953,-0.0997,-0.1014,-0.1046,-0.1061,-0.1082,-0.1102,-0.1142,-0.1167,-0.1182,-0.1208,-0.1241,-0.1269,-0.1276,-0.1287,-0.1289,-0.1297,-0.1275,-0.1272,-0.127,-0.1262,-0.1291,-0.1292,-0.1318,-0.1318,-0.1318]},{"header":{"parameterUnit":"m.s-1","parameterCategory":1,"la1":30.2991,"la2":30.254,"lo1":-89.0895,"lo2":-89.0444,"dy":0.0017,"dx":0.0017,"nx":28,"ny":28,"refTime":"2024-07-23T09:00:00:Z","depth":0,"parameterNumber":3,"parameterNumberName":"V-component_of_WINDS"},"data":[0,0,0,0,0,0,0,0,0,0,0,0,0,0,0,0,0,0,0,0,0,0,0,0,0,0,0,0,0,0,0,0,0,0,0,0,0,0,0,0,0,0,0,0,0,0,0,0,0,0,0,0,0,0,0,0,0,0,-0.4679,-0.4679,0,-0.464,-0.464,-0.4639,-0.4636,-0.4636,-0.4637,-0.4637,-0.4593,-0.4591,-0.459,0,0,0,0,0,0,0,0,0,0,0,0,0,-0.4745,-0.4744,-0.4679,-0.4679,-0.4678,-0.464,-0.464,-0.4639,-0.4636,-0.4636,-0.4637,-0.4637,-0.4593,-0.4592,-0.459,0,0,0,0,0,0,0,0,0,0,0,0,0,-0.4712,-0.4743,-0.4679,-0.4672,-0.4671,-0.464,-0.464,-0.4639,-0.4636,-0.4636,-0.4637,-0.4638,-0.4594,-0.4592,-0.4589,-0.4562,0,0,-0.4582,-0.4581,0,0,0,0,0,0,0,0,-0.4714,-0.471,-0.4674,-0.4672,-0.4671,-0.4644,-0.4647,-0.4613,-0.4636,-0.4649,-0.4637,-0.4638,-0.4609,-0.4605,-0.4597,-0.456,-0.4558,-0.4582,-0.4581,-0.458,-0.4579,0,0,0,0,0,0,0,-0.4716,-0.4711,-0.4664,-0.4673,-0.4672,-0.4669,-0.4665,-0.464,-0.4626,-0.4648,-0.4648,-0.4643,-0.4608,-0.4599,-0.4596,-0.4557,-0.4582,-0.458,-0.4578,-0.4578,-0.4494,-0.4493,0,0,0,0,0,0,-0.4721,-0.4713,-0.4665,-0.4662,-0.4695,-0.4667,-0.4663,-0.4652,-0.4626,-0.4623,-0.4643,-0.4643,-0.4603,-0.4598,-0.4594,-0.4559,-0.458,-0.4577,-0.4576,-0.4495,-0.4494,-0.4493,0,0,0,0,0,0,-0.4722,-0.4716,-0.4666,-0.4688,-0.4681,-0.4665,-0.4653,-0.4651,-0.4641,-0.4622,-0.4619,-0.4636,-0.4603,-0.4597,-0.457,-0.4557,-0.4576,-0.4574,-0.4496,-0.4495,-0.4493,-0.4489,0,0,0,0,0,0,-0.4724,-0.4717,-0.4708,-0.4688,-0.468,-0.4645,-0.4652,-0.4649,-0.4638,-0.4638,-0.4615,-0.4612,-0.4603,-0.4573,-0.4568,-0.4554,-0.4572,-0.4497,-0.4495,-0.4494,-0.449,-0.4488,-0.4486,0,0,0,0,0,-0.4726,-0.4708,-0.4707,-0.4701,-0.4669,-0.4644,-0.4639,-0.4631,-0.4637,-0.4626,-0.4614,-0.4613,-0.456,-0.4571,-0.4564,-0.455,-0.4498,-0.4496,-0.4494,-0.4491,-0.4489,-0.4486,0,0,0,0,0,0,-0.4725,-0.4705,-0.4704,-0.4679,-0.4663,-0.4644,-0.463,-0.4629,-0.461,-0.4611,-0.46,-0.4594,-0.4567,-0.4556,-0.4568,-0.4521,-0.4529,-0.4526,-0.4529,-0.4526,-0.4524,-0.4527,-0.457,0,0,0,0,0,-0.4722,-0.4706,-0.4688,-0.4667,-0.466,-0.4646,-0.4635,-0.463,-0.4613,-0.4606,-0.4591,-0.4573,-0.4552,-0.4539,-0.4519,-0.4489,-0.4483,-0.4476,-0.4474,-0.4472,-0.4469,-0.445,-0.4446,-0.4487,-0.4487,-0.4487,0,0,-0.4716,-0.4702,-0.4692,-0.4667,-0.4654,-0.4635,-0.4641,-0.4621,-0.4606,-0.4602,-0.4576,-0.4564,-0.4543,-0.4514,-0.45,-0.4504,-0.4456,-0.447,-0.4468,-0.4466,-0.4448,-0.4444,-0.4441,-0.4486,-0.4486,-0.4486,0,0,-0.4694,-0.4683,-0.4663,-0.4651,-0.4632,-0.4623,-0.4618,-0.4598,-0.4591,-0.4564,-0.4561,-0.4542,-0.4507,-0.4492,-0.4479,-0.445,-0.4447,-0.4443,-0.4432,-0.4413,-0.441,-0.4407,-0.4395,-0.4391,-0.4441,-0.4441,-0.4441,0,-0.4687,-0.466,-0.4653,-0.4633,-0.4621,-0.4618,-0.4597,-0.4585,-0.4559,-0.455,-0.4555,-0.451,-0.4495,-0.4462,-0.4454,-0.4445,-0.4438,-0.4446,-0.4412,-0.4409,-0.4406,-0.4394,-0.4389,-0.444,-0.444,-0.444,-0.444,0,-0.4652,-0.4633,-0.462,-0.4597,-0.4583,-0.4563,-0.4551,-0.4538,-0.4533,-0.4523,-0.4495,-0.4477,-0.4453,-0.4445,-0.444,-0.4409,-0.4412,-0.4414,-0.4422,-0.4401,-0.439,-0.4386,-0.444,-0.444,-0.444,-0.444,0,0,-0.4628,-0.4602,-0.4597,-0.4585,-0.4564,-0.4548,-0.4527,-0.4504,-0.4492,-0.4474,-0.4455,-0.4425,-0.4426,-0.4412,-0.4405,-0.439,-0.4365,-0.4393,-0.4393,-0.4387,-0.4328,-0.4326,-0.4321,-0.4364,-0.4363,-0.4362,-0.4329,0,-0.4603,-0.4567,-0.4559,-0.4527,-0.4508,-0.4504,-0.4485,-0.4468,-0.4458,-0.4439,-0.4427,-0.4406,-0.441,-0.4401,-0.4386,-0.4372,-0.4353,-0.4374,-0.4343,-0.4342,-0.4347,-0.4315,-0.4313,-0.4283,-0.4325,-0.4324,-0.4324,0,-0.4568,-0.4551,-0.4517,-0.4497,-0.4488,-0.4472,-0.445,-0.4432,-0.4413,-0.4406,-0.439,-0.4385,-0.436,-0.4369,-0.4333,-0.4348,-0.4335,-0.4326,-0.4324,-0.432,-0.4331,-0.4309,-0.4273,-0.4268,-0.4317,-0.4317,-0.4318,0,-0.4552,-0.452,-0.4496,-0.4486,-0.4463,-0.445,-0.444,-0.4421,-0.4407,-0.4387,-0.4378,-0.4354,-0.4341,-0.4322,-0.431,-0.4319,-0.4275,-0.4284,-0.4266,-0.4267,-0.4257,-0.4257,-0.4217,-0.425,-0.425,-0.425,-0.4251,0,-0.4524,-0.4503,-0.4488,-0.4473,-0.4448,-0.4439,-0.4414,-0.4403,-0.4386,-0.4367,-0.4362,-0.4343,-0.4329,-0.4308,-0.4298,-0.4268,-0.4263,-0.4255,-0.4252,-0.4255,-0.4256,-0.4245,-0.4246,-0.4249,-0.4249,-0.425,-0.425,0,-0.4502,-0.4492,-0.4464,-0.4444,-0.4438,-0.4421,-0.4402,-0.4386,-0.4375,-0.4351,-0.4344,-0.4327,-0.4302,-0.4288,-0.4256,-0.4249,-0.4216,-0.4215,-0.4223,-0.4222,-0.4205,-0.4206,-0.4156,-0.4148,-0.4187,-0.4187,-0.4187,0,-0.4484,-0.4468,-0.4446,-0.4433,-0.4423,-0.4403,-0.4389,-0.4378,-0.4364,-0.4339,-0.4325,-0.43,-0.4279,-0.4239,-0.4222,-0.4197,-0.4194,-0.4178,-0.419,-0.4193,-0.4192,-0.4193,-0.419,-0.4176,-0.4175,-0.4175,-0.4175,0,-0.4453,-0.4448,-0.4429,-0.4408,-0.4392,-0.4375,-0.4357,-0.4347,-0.4333,-0.4316,-0.4291,-0.4275,-0.4243,-0.4217,-0.419,-0.4176,-0.4172,-0.4171,-0.4166,-0.4168,-0.4172,-0.4168,-0.4216,-0.4172,-0.4173,-0.4173,-0.4173,-0.4173,-0.4431,-0.4416,-0.4398,-0.4376,-0.4362,-0.4346,-0.4329,-0.4317,-0.4296,-0.427,-0.4265,-0.4237,-0.4216,-0.418,-0.4166,-0.4143,-0.4146,-0.4138,-0.4136,-0.4134,-0.4132,-0.4177,-0.4138,-0.4138,-0.4138,-0.4138,-0.4138,0,-0.4398,-0.4386,-0.4367,-0.4343,-0.4326,-0.4325,-0.4305,-0.429,-0.4267,-0.4248,-0.4228,-0.4198,-0.4172,-0.4154,-0.4127,-0.4112,-0.4109,-0.4105,-0.4105,-0.4102,-0.4132,-0.4139,-0.4108,-0.4108,-0.4108,-0.4108,-0.4108,-0.4108,-0.4379,-0.4353,-0.4346,-0.4312,-0.4299,-0.4274,-0.4263,-0.4246,-0.4231,-0.4199,-0.4178,-0.4166,-0.4147,-0.4118,-0.4094,-0.4089,-0.4079,-0.4074,-0.4069,-0.4097,-0.41,-0.4103,-0.4109,-0.4073,-0.4073,-0.404,-0.404,-0.404]}]]